RADUGA 1 [-]

Last updated on June 24, 2019, 3:40 a.m. UTC

1 08513U 75123A   19173.85139839 -.00000184  00000-0  00000-0 0  9996
2 08513   9.0755 303.1015 0004344 192.7915 165.7178  1.00284831169229
UTC
Height (km)
Latitude
Longitude
Inclination
Orbital Period
UTC large
Height (km)
Speed (km/s)
/
Latitude / Longitude
Inclination (degrees)
Orbital Period (minutes)
Azimuth
Elevation
Range (km)
Doppler Factor
iOS Compass Heading
iOS Angle

Next 30 passes for location: Hong Kong

Rise time Rise Azimuth (degrees) Set time Set Azimuth (degrees) Duration Max altitude (degrees)

No matching passes for this satellites